Flag for Norway Weather past 2 weeks in Kolbotn, Norway

Now
41 °F

Passing clouds.


Feels Like: 33 °F
Forecast: 20 / 38 °F
Wind: 15 mph from South

Location: Oslo / Fornebu

Current Time: Mar 27, 2015 at 3:19:24 AM

Latest Report: Mar 27, 2015 at 2:50 AM


Visibility: N/A

Pressure: 29.71 "Hg

Humidity: 87%

Dew point: 37 °F

Location of KolbotnLocation

Historic Weather in Kolbotn — Graph

°F

Kolbotn temperature yesterday

Maximum temperature yesterday: 43 °F (at 12:20 AM)
Minimum temperature yesterday: 37 °F (at 11:20 AM)
Average temperature yesterday: 41 °F

Past Weeks' High & Low Weather Summary

 TemperatureHumidityPressure
High50 °F (Mar 17, 10:20 AM)100% (Mar 19, 6:20 AM)30.77 "Hg (Mar 19, 6:20 AM)
Low37 °F (Mar 26, 11:20 AM)39% (Mar 21, 9:50 AM)29.27 "Hg (Mar 23, 6:20 AM)
Average44 °F76%30.19 "Hg
* Reported Mar 12 1:20 AM — Mar 27 1:50 AM, Kolbotn, Weather by CustomWeather, © 2015

Note: Actual official high and low records may vary slightly from our data, if they occured in-between our weather recording intervals... More about our weather records

Advertising

Kolbotn weather history for previous 24 hours

 ConditionsComfort  
Time TempWeatherWind HumidityBarometerVisibility
1:50 AM
Fri, Mar 27
41 °FPassing clouds.22 mph81%29.71 "HgN/A
1:20 AM41 °FPassing clouds.18 mph81%29.71 "HgN/A
12:50 AM39 °FSprinkles. Passing clouds.23 mph87%29.68 "HgN/A
12:20 AM39 °FSprinkles. Passing clouds.18 mph87%29.68 "HgN/A
11:50 PM
Thu, Mar 26
41 °FPartly cloudy.20 mph81%29.68 "HgN/A
11:20 PM41 °FPassing clouds.21 mph76%29.68 "HgN/A
10:50 PM41 °FPartly cloudy.22 mph70%29.65 "HgN/A
10:20 PM41 °FPassing clouds.22 mph70%29.65 "HgN/A
9:50 PM41 °FPassing clouds.21 mph76%29.65 "HgN/A
9:20 PM41 °FPassing clouds.21 mph70%29.65 "HgN/A
8:50 PM41 °FPassing clouds.22 mph76%29.62 "HgN/A
8:20 PM41 °FPassing clouds.21 mph70%29.62 "HgN/A
7:50 PM41 °FPassing clouds.20 mph76%29.62 "HgN/A
7:20 PM41 °FOvercast.18 mph76%29.62 "HgN/A
6:50 PM41 °FSprinkles. Passing clouds.21 mph81%29.59 "HgN/A
6:20 PM41 °FSprinkles. Partly sunny.17 mph81%29.59 "HgN/A
5:50 PM39 °FSprinkles. Partly sunny.13 mph87%29.59 "HgN/A
5:20 PM37 °FLight rain. Overcast.8 mph93%29.59 "HgN/A
4:50 PM37 °FLight rain. Overcast.18 mph87%29.59 "Hg6 mi
4:20 PM41 °FBroken clouds.15 mph81%29.56 "HgN/A
3:50 PM41 °FOvercast.20 mph81%29.56 "HgN/A
3:20 PM39 °FSprinkles. Partly sunny.15 mph87%29.56 "HgN/A
2:50 PM39 °FLight rain. Low clouds.15 mph87%29.56 "HgN/A
2:20 PM41 °FDrizzle. Broken clouds.16 mph81%29.56 "HgN/A
1:50 PM41 °FPartly sunny.18 mph81%29.56 "HgN/A
1:20 PM43 °FMostly cloudy.16 mph71%29.56 "HgN/A
12:50 PM41 °FPartly sunny.15 mph76%29.56 "HgN/A
12:20 PM39 °FLight rain. Partly sunny.15 mph81%29.56 "HgN/A
11:50 AM37 °FLight rain. Overcast.16 mph87%29.59 "HgN/A
11:20 AM37 °FLight rain. Overcast.15 mph87%29.59 "Hg5 mi
10:50 AM39 °FLight rain. Overcast.14 mph81%29.59 "HgN/A
10:20 AM41 °FLight rain. Partly sunny.16 mph76%29.59 "Hg5 mi
9:50 AM43 °FPartly sunny.16 mph61%29.59 "HgN/A
9:20 AM43 °FPartly sunny.18 mph61%29.59 "HgN/A
8:50 AM43 °FPartly sunny.23 mph57%29.59 "HgN/A
8:20 AM43 °FPartly sunny.25 mph57%29.62 "HgN/A
7:50 AM43 °FPartly sunny.25 mph66%29.62 "HgN/A
7:20 AM43 °FPartly sunny.25 mph61%29.65 "HgN/A
6:50 AM43 °FOvercast.22 mph71%29.65 "HgN/A
6:20 AM41 °FOvercast.22 mph76%29.68 "HgN/A
5:50 AM41 °FSprinkles. Overcast.24 mph76%29.68 "HgN/A
5:20 AM43 °FPassing clouds.29 mph61%29.68 "HgN/A
4:50 AM43 °FPassing clouds.30 mph61%29.71 "HgN/A
4:20 AM43 °FPartly cloudy.31 mph61%29.71 "HgN/A
3:50 AM43 °FPassing clouds.31 mph61%29.71 "HgN/A
3:20 AM43 °FPassing clouds.30 mph66%29.74 "HgN/A
Weather by CustomWeather, © 2015

See weather overviewHow to use our weather pages